DAL5050 KLEX-KLGA

Flight info

Callsign DAL5050
Flight time N/A
Altitude 37000
Route HYK GVE PROUD2
Aircraft CRJ9/M-SDFGIRWY/S

Departure

Time 2026-04-13 20:06
Airport Blue Grass Airport (KLEX)

Arrival

Time N/A
Airport LaGuardia Airport (KLGA)
Time Latitude Longitude Altitude Speed Heading
2026-04-13 19:42 38.03589 -84.59990 949 ft 0 kts 54°
2026-04-13 19:53 38.03580 -84.60005 947 ft 3 kts 54°
2026-04-13 19:53 38.03572 -84.60026 947 ft 3 kts 88°
2026-04-13 19:54 38.03579 -84.60046 946 ft 2 kts 143°
2026-04-13 19:54 38.03581 -84.60048 946 ft 0 kts 143°
2026-04-13 19:55 38.03577 -84.60044 948 ft 1 kts 158°
2026-04-13 19:55 38.03555 -84.60039 947 ft 5 kts 179°
2026-04-13 19:55 38.03542 -84.60025 949 ft 1 kts 89°
2026-04-13 19:55 38.03545 -84.60017 949 ft 1 kts 50°
2026-04-13 19:56 38.03554 -84.60011 947 ft 2 kts 11°
2026-04-13 19:56 38.03562 -84.60014 946 ft 1 kts 321°
2026-04-13 19:56 38.03575 -84.60036 947 ft 6 kts 304°
2026-04-13 19:56 38.03614 -84.60082 949 ft 10 kts 327°
2026-04-13 19:57 38.03694 -84.60111 949 ft 14 kts 352°
2026-04-13 19:57 38.03762 -84.60105 950 ft 10 kts 22°
2026-04-13 19:57 38.03833 -84.60054 950 ft 13 kts 41°
2026-04-13 19:57 38.03904 -84.60002 951 ft 11 kts 347°
2026-04-13 19:58 38.03974 -84.59976 952 ft 12 kts 41°
2026-04-13 19:58 38.04045 -84.59896 954 ft 15 kts 41°
2026-04-13 19:58 38.04113 -84.59825 955 ft 9 kts 21°
2026-04-13 19:58 38.04147 -84.59834 955 ft 4 kts 319°
2026-04-13 19:59 38.04165 -84.59856 956 ft 7 kts 312°
2026-04-13 19:59 38.04186 -84.59916 956 ft 9 kts 252°
2026-04-13 19:59 38.04082 -84.60044 953 ft 48 kts 221°
2026-04-13 19:59 38.03478 -84.60717 941 ft 99 kts 221°
2026-04-13 20:00 38.03168 -84.61063 932 ft 72 kts 221°
2026-04-13 20:00 38.02974 -84.61279 932 ft 31 kts 221°
2026-04-13 20:00 38.02854 -84.61402 929 ft 14 kts 190°
2026-04-13 20:00 38.02799 -84.61316 929 ft 15 kts 59°
2026-04-13 20:01 38.02886 -84.61238 931 ft 17 kts 39°
2026-04-13 20:01 38.02983 -84.61132 931 ft 20 kts 41°
2026-04-13 20:01 38.03095 -84.61011 933 ft 23 kts 42°
2026-04-13 20:01 38.03217 -84.60865 935 ft 25 kts 40°
2026-04-13 20:02 38.03358 -84.60712 940 ft 28 kts 40°
2026-04-13 20:02 38.03507 -84.60541 942 ft 30 kts 42°
2026-04-13 20:02 38.03661 -84.60350 946 ft 32 kts 63°
2026-04-13 20:02 38.03770 -84.60112 948 ft 28 kts 45°
2026-04-13 20:03 38.03880 -84.60001 951 ft 14 kts 35°
2026-04-13 20:03 38.03963 -84.59986 952 ft 13 kts 39°
2026-04-13 20:03 38.04041 -84.59900 954 ft 16 kts 40°
2026-04-13 20:03 38.04122 -84.59821 955 ft 4 kts
2026-04-13 20:04 38.04133 -84.59823 956 ft 2 kts 336°
2026-04-13 20:04 38.04140 -84.59829 954 ft 0 kts 321°
2026-04-13 20:04 38.04140 -84.59830 954 ft 0 kts 321°
2026-04-13 20:04 38.04153 -84.59843 956 ft 4 kts 321°
2026-04-13 20:05 38.04182 -84.59883 956 ft 8 kts 305°
2026-04-13 20:05 38.04162 -84.59956 954 ft 17 kts 222°
2026-04-13 20:05 38.03904 -84.60243 948 ft 84 kts 221°
2026-04-13 20:05 38.03312 -84.60905 936 ft 141 kts 221°
2026-04-13 20:06 38.02485 -84.61827 1186 ft 164 kts 219°
2026-04-13 20:06 38.01633 -84.62790 1893 ft 174 kts 217°
2026-04-13 20:06 38.00460 -84.63303 2373 ft 198 kts 175°
2026-04-13 20:06 37.99204 -84.62383 2922 ft 231 kts 130°
2026-04-13 20:07 37.98688 -84.60339 3561 ft 264 kts 93°
2026-04-13 20:07 37.98947 -84.57939 4223 ft 286 kts 82°
2026-04-13 20:07 37.99061 -84.55365 4820 ft 300 kts 101°
2026-04-13 20:07 37.98578 -84.52722 5381 ft 316 kts 110°
2026-04-13 20:08 37.97804 -84.50032 5954 ft 333 kts 117°
2026-04-13 20:08 37.96808 -84.47304 6489 ft 351 kts 112°
2026-04-13 20:08 37.96464 -84.44177 7011 ft 370 kts 89°
2026-04-13 20:08 37.96671 -84.40886 7528 ft 379 kts 84°
2026-04-13 20:09 37.96971 -84.37523 8073 ft 388 kts 84°
2026-04-13 20:09 37.97181 -84.34080 8614 ft 395 kts 87°
2026-04-13 20:09 37.97283 -84.30577 9253 ft 399 kts 89°
2026-04-13 20:09 37.97362 -84.26991 9367 ft 418 kts 88°
2026-04-13 20:10 37.97477 -84.23243 9762 ft 427 kts 88°
2026-04-13 20:10 37.97594 -84.19499 10538 ft 424 kts 88°
2026-04-13 20:10 37.97712 -84.15815 11264 ft 421 kts 88°
2026-04-13 20:10 37.97834 -84.12119 11996 ft 418 kts 88°
2026-04-13 20:11 37.97949 -84.08445 12749 ft 415 kts 88°
2026-04-13 20:11 37.98062 -84.04797 13514 ft 413 kts 88°
2026-04-13 20:11 37.98173 -84.01174 14259 ft 410 kts 88°
2026-04-13 20:11 37.98282 -83.97573 14953 ft 406 kts 88°
2026-04-13 20:12 37.98388 -83.94053 15648 ft 403 kts 88°
2026-04-13 20:12 37.98492 -83.90523 16362 ft 398 kts 88°
2026-04-13 20:12 37.98594 -83.87038 17089 ft 392 kts 88°
2026-04-13 20:12 37.98694 -83.83614 17825 ft 385 kts 88°
2026-04-13 20:13 37.98791 -83.80246 18581 ft 378 kts 88°
2026-04-13 20:13 37.98886 -83.76941 19069 ft 376 kts 88°
2026-04-13 20:13 37.98979 -83.73619 19395 ft 378 kts 88°
2026-04-13 20:13 37.99071 -83.70275 19749 ft 380 kts 88°
2026-04-13 20:14 37.99162 -83.66919 20096 ft 382 kts 88°
2026-04-13 20:14 37.99252 -83.63555 20468 ft 382 kts 89°
2026-04-13 20:14 37.99343 -83.60185 20846 ft 383 kts 89°
2026-04-13 20:14 37.99430 -83.56809 21235 ft 383 kts 89°
2026-04-13 20:15 37.99514 -83.53435 21610 ft 382 kts 89°
2026-04-13 20:15 37.99600 -83.50065 21970 ft 382 kts 90°
2026-04-13 20:15 37.99684 -83.46751 22344 ft 381 kts 90°
2026-04-13 20:15 37.99760 -83.43402 22710 ft 379 kts 90°
2026-04-13 20:16 37.99838 -83.40069 23090 ft 377 kts 90°
2026-04-13 20:16 37.99922 -83.36758 23482 ft 375 kts 90°
2026-04-13 20:16 38.00002 -83.33457 23857 ft 372 kts 90°
2026-04-13 20:16 38.00081 -83.30186 24206 ft 368 kts 90°
2026-04-13 20:17 38.00150 -83.26954 24535 ft 365 kts 90°
2026-04-13 20:17 38.00215 -83.23791 24861 ft 360 kts 90°
2026-04-13 20:17 38.00286 -83.20641 25188 ft 355 kts 90°
2026-04-13 20:17 38.00365 -83.17530 25519 ft 350 kts 90°
2026-04-13 20:18 38.00445 -83.14468 25852 ft 344 kts 89°
2026-04-13 20:18 38.00526 -83.11459 26179 ft 338 kts 89°
2026-04-13 20:18 38.00673 -83.08447 26120 ft 349 kts 86°
2026-04-13 20:18 38.00951 -83.05280 25677 ft 373 kts 83°
2026-04-13 20:19 38.01312 -83.01959 25570 ft 383 kts 82°
2026-04-13 20:19 38.01698 -82.98661 26095 ft 370 kts 82°
2026-04-13 20:19 38.02068 -82.95561 26785 ft 351 kts 82°
2026-04-13 20:19 38.02430 -82.92524 27061 ft 349 kts 82°
2026-04-13 20:20 38.02796 -82.89419 26776 ft 366 kts 82°
2026-04-13 20:20 38.03184 -82.86142 26448 ft 383 kts 82°
2026-04-13 20:20 38.03586 -82.82780 26618 ft 383 kts 82°
2026-04-13 20:20 38.03981 -82.79508 27229 ft 366 kts 82°
2026-04-13 20:21 38.04355 -82.76369 27723 ft 356 kts 81°
2026-04-13 20:21 38.04719 -82.73241 27708 ft 363 kts 82°
2026-04-13 20:21 38.05094 -82.69996 27364 ft 380 kts 82°
2026-04-13 20:21 38.05482 -82.66623 27233 ft 390 kts 82°
2026-04-13 20:22 38.05870 -82.63245 27595 ft 382 kts 82°
2026-04-13 20:22 38.06242 -82.59976 28181 ft 367 kts 82°
2026-04-13 20:22 38.06598 -82.56797 28483 ft 363 kts 82°
2026-04-13 20:22 38.06951 -82.53617 28331 ft 374 kts 82°
2026-04-13 20:23 38.07323 -82.50282 28033 ft 389 kts 82°
2026-04-13 20:23 38.07711 -82.46861 28081 ft 392 kts 82°
2026-04-13 20:23 38.08093 -82.43474 28528 ft 381 kts 82°
2026-04-13 20:23 38.08454 -82.40188 29002 ft 371 kts 82°
2026-04-13 20:24 38.08798 -82.36950 29126 ft 372 kts 81°
2026-04-13 20:24 38.09137 -82.33650 28934 ft 383 kts 82°
2026-04-13 20:24 38.09479 -82.30243 28750 ft 392 kts 82°
2026-04-13 20:24 38.09826 -82.26803 28920 ft 391 kts 82°
2026-04-13 20:25 38.10167 -82.23414 29354 ft 382 kts 81°
2026-04-13 20:25 38.10494 -82.20100 29709 ft 375 kts 82°
2026-04-13 20:25 38.11047 -82.16907 29821 ft 371 kts 63°
2026-04-13 20:25 38.12269 -82.14097 29732 ft 369 kts 51°
2026-04-13 20:26 38.13451 -82.11103 29623 ft 382 kts 73°
2026-04-13 20:26 38.13747 -82.07772 29556 ft 389 kts 95°
2026-04-13 20:26 38.12750 -82.00975 29453 ft 395 kts 117°
2026-04-13 20:27 38.11294 -81.98061 29407 ft 389 kts 140°
2026-04-13 20:27 38.09215 -81.95938 29391 ft 383 kts 154°
2026-04-13 20:27 38.04854 -81.91837 29275 ft 403 kts 137°
2026-04-13 20:28 38.03144 -81.88965 29252 ft 414 kts 121°
2026-04-13 20:28 38.02126 -81.85577 29276 ft 422 kts 102°
2026-04-13 20:28 38.01896 -81.81809 29293 ft 426 kts 84°
2026-04-13 20:28 38.02388 -81.78149 29307 ft 429 kts 77°
2026-04-13 20:29 38.03046 -81.70542 29257 ft 439 kts 90°
2026-04-13 20:29 38.02907 -81.62732 29226 ft 446 kts 91°
2026-04-13 20:30 38.02924 -81.54819 29229 ft 448 kts 88°
2026-04-13 20:30 38.03080 -81.47073 29192 ft 435 kts 88°
2026-04-13 20:31 38.03153 -81.39326 29198 ft 442 kts 89°
2026-04-13 20:31 38.03177 -81.31459 29194 ft 449 kts 89°
2026-04-13 20:32 38.03239 -81.23501 29181 ft 453 kts 89°
2026-04-13 20:32 38.03297 -81.15466 29192 ft 458 kts 89°
2026-04-13 20:33 38.03344 -81.07390 29194 ft 463 kts 89°
2026-04-13 20:33 38.03386 -80.99180 29179 ft 467 kts 89°
2026-04-13 20:34 38.03422 -80.90890 29184 ft 472 kts 89°
2026-04-13 20:34 38.03455 -80.82539 29190 ft 467 kts 89°
2026-04-13 20:35 38.03469 -80.78478 29179 ft 454 kts 89°
2026-04-13 20:35 38.03480 -80.74518 29178 ft 441 kts 89°
2026-04-13 20:35 38.03490 -80.70674 29165 ft 430 kts 88°
2026-04-13 20:35 38.03502 -80.66976 29165 ft 419 kts 88°
2026-04-13 20:36 38.03522 -80.59765 29164 ft 399 kts 89°
2026-04-13 20:36 38.03532 -80.52889 29168 ft 381 kts 88°
2026-04-13 20:37 38.03536 -80.46322 29169 ft 364 kts 89°
2026-04-13 20:37 38.03538 -80.40041 29153 ft 347 kts 88°
2026-04-13 20:38 38.03535 -80.34055 29158 ft 330 kts 88°
2026-04-13 20:38 38.03530 -80.28402 29153 ft 311 kts 88°
2026-04-13 20:39 38.03539 -80.23031 29168 ft 305 kts 88°
2026-04-13 20:39 38.03506 -80.17654 29202 ft 304 kts 88°